Hourly Weather Roundup
Issued by NWS Central Illinois

Home | Current Version | Previous Version | Text Only | Print | Product List | Glossary On
Versions: 1 2 3 4 5 6 7 8 9 10 11 12 13 14 15 16 17 18 19 20 21 22 23 24 25 26 27 28 29 30 31 32 33 34 35 36 37 38 39 40 41 42 43 44 45 46 47 48 49 50
000
NZUS43 KILX 230010
HWRILX

AREA WEATHER ROUNDUP
NATIONAL WEATHER SERVICE, LINCOLN IL
600 PM CST WED FEB 22 2017


CITY           SKY/WX    TMP DP  RH WIND       PRES   REMARKS
BLOOMINGTON    CLEAR     59  54  83 S15       29.67F
6HR MIN TEMP:  58; 6HR MAX TEMP:  67;

CHAMPAIGN      CLEAR     62  52  69 S12       29.71F
6HR MIN TEMP:  62; 6HR MAX TEMP:  71;

DECATUR        CLOUDY    65  54  67 S10       29.70F
6HR MIN TEMP:  64; 6HR MAX TEMP:  69;

EFFINGHAM      MOCLDY    67  55  66 S8        29.76S
6HR MIN TEMP:  67; 6HR MAX TEMP:  73;

FLORA          CLOUDY    67  56  66 S10       29.76S
6HR MIN TEMP:  67; 6HR MAX TEMP:  73;

GALESBURG      CLEAR     62  54  74 S12       29.62S
6HR MIN TEMP:  62; 6HR MAX TEMP:  69;

JACKSONVILLE   CLEAR     58  54  86 S8        29.66F
6HR MIN TEMP:  56; 6HR MAX TEMP:  64;

LACON          CLEAR     61  55  78 SW12G18   29.62S
6HR MIN TEMP:  60; 6HR MAX TEMP:  67;

LAWRENCEVILLE  CLOUDY    63  55  75 S10       29.78S
6HR MIN TEMP:  63; 6HR MAX TEMP:  71;

LITCHFIELD     MOCLDY    62  56  83 S3        29.71S
6HR MIN TEMP:  56; 6HR MAX TEMP:  68;

$$


CITY           SKY/WX    TMP DP  RH WIND       PRES   REMARKS
LINCOLN        CLEAR     61  57  88 S9        29.67F
6HR MIN TEMP:  61; 6HR MAX TEMP:  68;

MACOMB         CLEAR     64  50  61 SW17      29.66R
6HR MIN TEMP:  61; 6HR MAX TEMP:  69;

MATTOON        PTCLDY    64  57  78 S8        29.73S
6HR MIN TEMP:  62; 6HR MAX TEMP:  69;

MT CARMEL AP   CLOUDY    63  54  73 S9        29.78S
6HR MIN TEMP:  62; 6HR MAX TEMP:  71;

OLNEY-NOBLE AP PTCLDY    63  59  88 S7        29.77S
PARIS          CLOUDY    64  56  75 S10       29.75F
6HR MIN TEMP:  60; 6HR MAX TEMP:  70;

PEORIA         CLEAR     60  55  83 S16       29.64S HAZE
6HR MIN TEMP:  58; 6HR MAX TEMP:  66;

PONTIAC        CLEAR     63  58  84 S17       29.66S
6HR MIN TEMP:  58; 6HR MAX TEMP:  68;

RANTOUL        CLEAR     65  55  70 S8        29.69F
6HR MIN TEMP:  65; 6HR MAX TEMP:  72;

SPRINGFIELD    CLOUDY    61  55  81 S10       29.68F
6HR MIN TEMP:  57; 6HR MAX TEMP:  64;

TAYLORVILLE    PTCLDY    62  56  81 S5        29.70F
6HR MIN TEMP:  60; 6HR MAX TEMP:  69;

$$

...REGIONAL REPORTS...


CITY           SKY/WX    TMP DP  RH WIND       PRES   REMARKS
CHICAGO O`HARE CLEAR     65  53  65 S16G26    29.60F
KANKAKEE       CLEAR     62  55  78 S14       29.67F
MOLINE         CLEAR     66  52  60 S15       29.57F
MOUNT STERLING CLEAR     59  54  84 S10       29.67R
MOUNT VERNON   CLOUDY    65  54  67 SW9       29.76S
PITTSFIELD     CLEAR     60  56  85 S5        29.68R
QUINCY         CLEAR     59  54  83 S10       29.66R
ROCKFORD       CLEAR     62  50  64 SW12      29.60R
$$


CITY           SKY/WX    TMP DP  RH WIND       PRES   REMARKS
BURLINGTON     CLEAR     63  53  70 S17       29.61S
CEDAR RAPIDS   CLEAR     60  41  49 W13       29.58R
DES MOINES     PTCLDY    67  42  40 NW10      29.64R
KIRKSVILLE     CLEAR     67  45  45 SW7       29.64R
OTTUMWA        CLEAR     67  35  30 NW12      29.61R
ST LOUIS       MOCLDY    69  55  60 E5        29.70F
$$


CITY           SKY/WX    TMP DP  RH WIND       PRES   REMARKS
TERRE HAUTE    PTCLDY    64  53  67 SW9       29.76R
EVANSVILLE     PTCLDY    64  54  69 S3        29.80R
INDIANAPOLIS   PTCLDY    61  54  77 S6        29.77S
LAFAYETTE      PTCLDY    62  55  77 S6        29.73S
MADISON        PTCLDY    64  50  60 S9        29.54R
MILWAUKEE      PTCLDY    64  49  57 S14G23    29.53F
$$






USA.gov is the U.S. government's official web portal to all federal, state and local government web resources and services.